VU2COR-13 Weather Reports


time (UTC)temp
F
wind
direction
speed
knots
gust
knots
rain 1hr
in
rain 24hr
in
rain mn
in
humidity
%
barometer
mb
20260507235722 87 0.0 0.0 0.00 0.00 0.00 56 978.9
20260507234722 87 0.0 0.0 0.00 0.00 0.00 57 978.9
20260507233722 87 0.0 0.0 0.00 0.00 0.00 58 978.8
20260507232722 87 0.0 0.0 0.00 0.00 0.00 58 978.7
20260507231721 87 0.0 0.0 0.00 0.00 0.00 58 978.7
20260507230722 86 0.0 0.0 0.00 0.00 0.00 62 978.7
20260507225722 85 0.0 0.0 0.00 0.00 0.00 64 978.6
20260507224722 85 0.0 0.0 0.00 0.00 0.00 65 978.6
20260507223722 85 0.0 0.0 0.00 0.00 0.00 62 978.6
20260507222722 86 0.0 0.0 0.00 0.00 0.00 60 978.7
20260507221722 88 0.0 0.0 0.00 0.00 0.00 55 978.7
20260507220722 87 0.0 0.0 0.00 0.00 0.00 56 978.8
20260507215722 88 0.0 0.0 0.00 0.00 0.00 56 978.9
20260507214721 87 0.0 0.0 0.00 0.00 0.00 57 978.8
20260507213721 86 0.0 0.0 0.00 0.00 0.00 59 978.7
20260507212722 88 0.0 0.0 0.00 0.00 0.00 55 978.6
20260507211722 88 0.0 0.0 0.00 0.00 0.00 55 978.6
20260507210721 87 0.0 0.0 0.00 0.00 0.00 58 978.6
20260507205721 87 0.0 0.0 0.00 0.00 0.00 56 978.7
20260507204721 88 0.0 0.0 0.00 0.00 0.00 55 978.7
20260507203721 87 0.0 0.0 0.00 0.00 0.00 56 978.7
20260507202721 88 0.0 0.0 0.00 0.00 0.00 54 978.7
20260507201721 88 0.0 0.0 0.00 0.00 0.00 53 978.7
20260507200721 88 0.0 0.0 0.00 0.00 0.00 52 978.8
20260507195722 87 0.0 0.0 0.00 0.00 0.00 54 978.8
20260507194721 89 0.0 0.0 0.00 0.00 0.00 49 978.7
20260507193721 88 0.0 0.0 0.00 0.00 0.00 52 978.8
20260507192722 89 0.0 0.0 0.00 0.00 0.00 50 978.8
20260507191721 88 0.0 0.0 0.00 0.00 0.00 50 978.9
20260507190721 88 0.0 0.0 0.00 0.00 0.00 50 979.0
20260507185721 88 0.0 0.0 0.00 0.00 0.00 50 979.1
20260507184721 89 0.0 0.0 0.00 0.00 0.00 48 979.2
20260507183721 89 0.0 0.0 0.00 0.00 0.00 48 979.2
20260507182721 89 0.0 0.0 0.00 0.00 0.00 47 979.3
20260507181722 90 0.0 0.0 0.00 0.00 0.00 45 979.3
20260507180721 90 0.0 0.0 0.00 0.00 0.00 44 979.2
20260507175721 89 0.0 0.0 0.00 0.00 0.00 44 979.2
20260507174721 89 0.0 0.0 0.00 0.00 0.00 44 979.3
20260507173722 90 0.0 0.0 0.00 0.00 0.00 43 979.3
20260507172721 90 0.0 0.0 0.00 0.00 0.00 43 979.3
20260507171721 91 0.0 0.0 0.00 0.00 0.00 42 979.3
20260507170721 91 0.0 0.0 0.00 0.00 0.00 42 979.3
20260507165722 90 0.0 0.0 0.00 0.00 0.00 42 979.3
20260507164721 91 0.0 0.0 0.00 0.00 0.00 42 979.4
20260507163722 91 0.0 0.0 0.00 0.00 0.00 42 979.4
20260507162722 90 0.0 0.0 0.00 0.00 0.00 42 979.3
20260507161721 92 0.0 0.0 0.00 0.00 0.00 42 979.4
20260507160721 91 0.0 0.0 0.00 0.00 0.00 42 979.4
20260507155721 91 0.0 0.0 0.00 0.00 0.00 42 979.3
20260507154722 92 0.0 0.0 0.00 0.00 0.00 41 979.2
20260507153721 93 0.0 0.0 0.00 0.00 0.00 41 979.3
20260507152722 92 0.0 0.0 0.00 0.00 0.00 41 979.2
20260507151721 93 0.0 0.0 0.00 0.00 0.00 41 979.0
20260507150721 93 0.0 0.0 0.00 0.00 0.00 42 978.8
20260507145721 94 0.0 0.0 0.00 0.00 0.00 41 978.7
20260507144721 94 0.0 0.0 0.00 0.00 0.00 40 978.6
20260507143721 95 0.0 0.0 0.00 0.00 0.00 40 978.4
20260507142721 95 0.0 0.0 0.00 0.00 0.00 39 978.3
20260507141721 95 0.0 0.0 0.00 0.00 0.00 38 978.2
20260507140721 95 0.0 0.0 0.00 0.00 0.00 38 978.1
20260507134721 96 0.0 0.0 0.00 0.00 0.00 38 977.8
20260507133721 97 0.0 0.0 0.00 0.00 0.00 37 977.9
20260507132721 96 0.0 0.0 0.00 0.00 0.00 37 977.8
20260507131721 97 0.0 0.0 0.00 0.00 0.00 35 977.7
20260507130721 98 0.0 0.0 0.00 0.00 0.00 35 977.5
20260507125721 98 0.0 0.0 0.00 0.00 0.00 35 977.4
20260507124721 99 0.0 0.0 0.00 0.00 0.00 34 977.4
20260507123721 99 0.0 0.0 0.00 0.00 0.00 34 977.4
20260507122722 99 0.0 0.0 0.00 0.00 0.00 34 977.3
20260507121721 100 0.0 0.0 0.00 0.00 0.00 34 977.2
20260507120721 100 0.0 0.0 0.00 0.00 0.00 34 977.2
20260507115721 100 0.0 0.0 0.00 0.00 0.00 33 977.2
20260507114722 100 0.0 0.0 0.00 0.00 0.00 33 977.2
20260507112721 100 0.0 0.0 0.00 0.00 0.00 34 977.2
20260507111721 99 0.0 0.0 0.00 0.00 0.00 34 977.2
20260507110721 99 0.0 0.0 0.00 0.00 0.00 34 977.3
20260507105721 100 0.0 0.0 0.00 0.00 0.00 33 977.3
20260507104721 100 0.0 0.0 0.00 0.00 0.00 33 977.3
20260507103721 99 0.0 0.0 0.00 0.00 0.00 33 977.5
20260507102721 100 0.0 0.0 0.00 0.00 0.00 33 977.4
20260507101721 98 0.0 0.0 0.00 0.00 0.00 34 977.5
20260507100721 99 0.0 0.0 0.00 0.00 0.00 34 977.6
20260507095721 99 0.0 0.0 0.00 0.00 0.00 34 977.7
20260507094721 99 0.0 0.0 0.00 0.00 0.00 34 977.8
20260507093721 99 0.0 0.0 0.00 0.00 0.00 34 978.0
20260507092721 99 0.0 0.0 0.00 0.00 0.00 34 978.1
20260507091721 98 0.0 0.0 0.00 0.00 0.00 35 978.2
20260507090722 98 0.0 0.0 0.00 0.00 0.00 34 978.3
20260507085721 98 0.0 0.0 0.00 0.00 0.00 35 978.4
20260507084721 98 0.0 0.0 0.00 0.00 0.00 35 978.4
20260507083721 97 0.0 0.0 0.00 0.00 0.00 36 978.5
20260507082721 98 0.0 0.0 0.00 0.00 0.00 35 978.6
20260507081721 97 0.0 0.0 0.00 0.00 0.00 35 978.6
20260507080721 98 0.0 0.0 0.00 0.00 0.00 34 978.8
20260507075721 96 0.0 0.0 0.00 0.00 0.00 35 978.8
20260507074722 97 0.0 0.0 0.00 0.00 0.00 34 978.9
20260507073721 96 0.0 0.0 0.00 0.00 0.00 34 979.0
20260507072721 96 0.0 0.0 0.00 0.00 0.00 34 979.1
20260507071721 96 0.0 0.0 0.00 0.00 0.00 34 979.1
20260507070721 96 0.0 0.0 0.00 0.00 0.00 34 979.0
20260507065721 96 0.0 0.0 0.00 0.00 0.00 35 979.1
20260507064721 96 0.0 0.0 0.00 0.00 0.00 35 979.1
20260507063721 96 0.0 0.0 0.00 0.00 0.00 35 979.2
20260507062721 96 0.0 0.0 0.00 0.00 0.00 34 979.2
20260507061721 95 0.0 0.0 0.00 0.00 0.00 35 979.2
20260507060721 95 0.0 0.0 0.00 0.00 0.00 35 979.2
20260507055721 95 0.0 0.0 0.00 0.00 0.00 35 979.3
20260507054721 94 0.0 0.0 0.00 0.00 0.00 35 979.4
20260507053721 94 0.0 0.0 0.00 0.00 0.00 35 979.3
20260507052721 94 0.0 0.0 0.00 0.00 0.00 36 979.3
20260507051721 94 0.0 0.0 0.00 0.00 0.00 36 979.2
20260507050721 92 0.0 0.0 0.00 0.00 0.00 37 979.3
20260507045721 92 0.0 0.0 0.00 0.00 0.00 37 979.2
20260507044721 92 0.0 0.0 0.00 0.00 0.00 37 979.1
20260507043721 92 0.0 0.0 0.00 0.00 0.00 36 979.0
20260507042721 90 0.0 0.0 0.00 0.00 0.00 36 979.0
20260507041720 91 0.0 0.0 0.00 0.00 0.00 37 978.9
20260507040721 91 0.0 0.0 0.00 0.00 0.00 38 978.9
20260507035721 90 0.0 0.0 0.00 0.00 0.00 38 978.9
20260507034721 90 0.0 0.0 0.00 0.00 0.00 39 978.8
20260507033721 89 0.0 0.0 0.00 0.00 0.00 40 978.7
20260507031721 89 0.0 0.0 0.00 0.00 0.00 41 978.6
20260507030721 87 0.0 0.0 0.00 0.00 0.00 42 978.6
20260507025721 88 0.0 0.0 0.00 0.00 0.00 43 978.6
20260507024721 87 0.0 0.0 0.00 0.00 0.00 43 978.5
20260507023721 87 0.0 0.0 0.00 0.00 0.00 43 978.4
20260507022721 87 0.0 0.0 0.00 0.00 0.00 43 978.3
20260507021721 87 0.0 0.0 0.00 0.00 0.00 42 978.1
20260507020721 88 0.0 0.0 0.00 0.00 0.00 42 978.1
20260507015720 88 0.0 0.0 0.00 0.00 0.00 41 978.0
20260507014720 87 0.0 0.0 0.00 0.00 0.00 42 977.9
20260507013720 88 0.0 0.0 0.00 0.00 0.00 42 977.8
20260507012720 87 0.0 0.0 0.00 0.00 0.00 41 977.6
20260507011721 86 0.0 0.0 0.00 0.00 0.00 41 977.5
20260507010720 87 0.0 0.0 0.00 0.00 0.00 41 977.3
20260507005721 88 0.0 0.0 0.00 0.00 0.00 40 977.3
20260507004720 88 0.0 0.0 0.00 0.00 0.00 40 977.2
20260507003720 88 0.0 0.0 0.00 0.00 0.00 40 977.1
20260507002720 89 0.0 0.0 0.00 0.00 0.00 39 976.9
20260507001720 89 0.0 0.0 0.00 0.00 0.00 40 976.7
20260507000720 89 0.0 0.0 0.00 0.00 0.00 39 976.6